Reno, NV

7:49 PM PDT on October 15, 2019 (GMT -0700)
Reno-Tahoe International

Weather History for KRNO - September, 2019

Change the Weather History Date:

Monday, September 16, 2019

  Actual Average Record
Temperature  
Mean Temperature 58 °F 65 °F  
Max Temperature 71 °F 82 °F 95 °F (1937)
Min Temperature 46 °F 49 °F 28 °F (1970)
Degree Days  
Heating Degree Days 6 3  
Month to date heating degree days 17 24  
Since 1 July heating degree days 17 34  
Cooling Degree Days 0 3  
Month to date cooling degree days 102 64  
Year to date cooling degree days 1093 810  
Growing Degree Days 8 (Base 50)    
Moisture  
Dew Point 31 °F    
Average Humidity 38    
Maximum Humidity 77    
Minimum Humidity 17    
Precipitation  
Precipitation 0.01 in 0.01 in 0.42 in (1989)
Month to date precipitation 0.06 0.14  
Year to date precipitation 8.82 4.83  
Snow  
Snow - 0.00 in 0.00 in ()
Month to date snowfall 0.0 0.0  
Since 1 July snowfall 0.0 0.0  
Since 1 September snowfall 0.0 0.0  
Snow Depth 0.00 in    
Sea Level Pressure  
Sea Level Pressure 29.82 in    
Wind  
Wind Speed 11 mph ()    
Max Wind Speed 40 mph    
Max Gust Speed 46 mph    
Visibility 9.8 miles    
Events Rain    
T = Trace of Precipitation, MM = Missing Value Source: Averaged Metar Reports

Daily Weather History Graph

Daily Weather History Graph

Search for Another Location

Airport or City:

Astronomy

Sep. 16, 2019 Rise Set
Actual Time 6:41 AM PDT 7:06 PM PDT
Civil Twilight 6:14 AM PDT 7:33 PM PDT
Nautical Twilight 5:42 AM PDT 8:04 PM PDT
Astronomical Twilight 5:09 AM PDT 8:37 PM PDT
Moon 8:43 PM PDT 8:52 AM PDT
Length of Visible Light 13h 18m
Length of Day
12h 25m
Waning Gibbous, 94% of the Moon is Illuminated
Sep 16
Waning Gibbous
Sep 21
Last Quarter
Sep 28
New
Oct 5
First Quarter
Oct 13
Full

Hourly Weather History & Observations

Time (PDT) Temp. Dew Point Humidity Pressure Visibility Wind Dir Wind Speed Gust Speed Precip Events Conditions
12:55 AM 64.9 °F 26.1 °F 23% 29.74 in 10.0 mi WSW 5.8 mph - N/A   Mostly Cloudy
1:55 AM 64.0 °F 27.0 °F 25% 29.73 in 10.0 mi West 5.8 mph - N/A   Mostly Cloudy
2:55 AM 61.0 °F 26.1 °F 26% 29.72 in 10.0 mi Calm Calm - N/A   Mostly Cloudy
3:55 AM 62.1 °F 24.1 °F 23% 29.71 in 10.0 mi West 16.1 mph - N/A   Mostly Cloudy
4:55 AM 61.0 °F 23.0 °F 23% 29.71 in 10.0 mi West 9.2 mph - N/A   Scattered Clouds
5:55 AM 61.0 °F 23.0 °F 23% 29.72 in 10.0 mi Variable 5.8 mph - N/A   Scattered Clouds
6:55 AM 55.9 °F 26.1 °F 32% 29.75 in 10.0 mi SSE 3.5 mph - N/A   Scattered Clouds
7:55 AM 62.1 °F 30.9 °F 31% 29.71 in 10.0 mi SSW 25.3 mph 33.4 mph N/A   Partly Cloudy
8:55 AM 66.0 °F 32.0 °F 28% 29.69 in 10.0 mi South 29.9 mph 36.8 mph N/A   Partly Cloudy
9:55 AM 69.1 °F 28.0 °F 22% 29.68 in 10.0 mi SSE 33.4 mph 42.6 mph N/A   Scattered Clouds
10:55 AM 70.0 °F 23.0 °F 17% 29.67 in 10.0 mi South 26.5 mph 40.3 mph N/A   Mostly Cloudy
11:42 AM 64.0 °F 34.0 °F 33% 29.83 in 10.0 mi West 29.9 mph 39.1 mph N/A   Mostly Cloudy
11:55 AM 64.9 °F 35.1 °F 33% 29.70 in 10.0 mi West 19.6 mph 35.7 mph N/A   Mostly Cloudy
12:55 PM 48.0 °F 41.0 °F 77% 29.84 in 5.0 mi WNW 33.4 mph 39.1 mph 0.00 in Rain Rain
1:55 PM 51.1 °F 37.9 °F 61% 29.85 in 10.0 mi SSW 10.4 mph - 0.01 in   Mostly Cloudy
2:55 PM 54.0 °F 35.1 °F 49% 29.86 in 10.0 mi Calm Calm - N/A   Mostly Cloudy
3:55 PM 55.9 °F 33.1 °F 42% 29.86 in 10.0 mi East 5.8 mph - N/A   Mostly Cloudy
4:55 PM 59.0 °F 32.0 °F 36% 29.86 in 10.0 mi South 12.7 mph 19.6 mph N/A   Scattered Clouds
5:24 PM 57.9 °F 34.0 °F 41% 29.98 in 10.0 mi WNW 17.3 mph - N/A   Scattered Clouds
5:55 PM 57.0 °F 30.9 °F 37% 29.90 in 10.0 mi WNW 12.7 mph 23.0 mph N/A   Scattered Clouds
6:55 PM 55.0 °F 32.0 °F 42% 29.93 in 10.0 mi West 6.9 mph - N/A   Partly Cloudy
7:55 PM 53.1 °F 33.1 °F 47% 29.92 in 10.0 mi WNW 15.0 mph - N/A   Scattered Clouds
8:55 PM 51.1 °F 33.1 °F 50% 29.94 in 10.0 mi WNW 15.0 mph - N/A   Partly Cloudy
9:55 PM 51.1 °F 33.1 °F 50% 29.95 in 10.0 mi NNW 9.2 mph - N/A   Scattered Clouds
10:55 PM 51.1 °F 33.1 °F 50% 29.96 in 10.0 mi NNW 8.1 mph - N/A   Partly Cloudy
11:55 PM 48.0 °F 34.0 °F 58% 29.99 in 10.0 mi Calm Calm - N/A   Partly Cloudy